Other Public Products
Issued by NWS Grand Forks, ND

Home | Current Version | Previous Version | Text Only | Print | Product List | Glossary Off
Versions: 1 2 3 4 5 6 7 8 9 10 11 12 13 14 15 16 17 18 19 20 21 22 23 24 25 26 27 28 29 30 31 32 33 34 35 36 37 38 39 40 41 42 43 44 45 46 47 48 49 50

000
FPUS83 KFGF 181131
OPUFGF
PRAIRIE TO PINES WEATHER ROUNDUP
NATIONAL WEATHER SERVICE EASTERN NORTH DAKOTA/GRAND FORKS ND
500 AM CST THU JAN 18 2018

 **SATELLITE DATA USED TO AUGMENT SKY COVER AT AUTOMATED STATIONS**
 *****  WEATHER ACROSS EASTERN NORTH DAKOTA  *****

CITY           SKY/WX    TMP DP  RH WIND       PRES   REMARKS
GRAND FORKS    FAIR      30  22  72 W15       29.75F WCI  19
GRND FORKS AFB FAIR      29  20  68 W13       29.75F WCI  19
GRND FORKS NWS   N/A     30 N/A N/A W13         N/A  WCI  20
BUXTON           N/A     23  22  96 W10         N/A  WCI  13
DEVILS LAKE    FAIR      22  17  81 W14       29.77F WCI   9
FARGO          FAIR      30  23  75 W15       29.80F WCI  19
WAHPETON ARPT  FAIR      23  18  80 W10       29.84F WCI  12
$$

 *****  WEATHER ACROSS CENTRAL AND WESTERN NORTH DAKOTA  *****

CITY           SKY/WX    TMP DP  RH WIND       PRES   REMARKS
JAMESTOWN      FAIR      29  20  69 W5        29.80F WCI  24
BISMARCK       FAIR      21  16  81 W7        29.85F WCI  12
MINOT          FAIR      27  18  69 SW15      29.77F WCI  15
MINOT AFB      FAIR      23  16  74 W13       29.76F WCI  11
GARRISON         N/A     21  15  78 CALM      29.81F
WILLISTON      FAIR      20  15  81 S5        29.82F WCI  13
DICKINSON      FAIR      31  19  61 W15       29.81F WCI  20
HETTINGER      FAIR      24  16  71 W9        29.87F WCI  14
$$

 *****  OTHER OBSERVATIONS NORTHEAST NORTH DAKOTA  *****

CITY           SKY/WX    TMP DP  RH WIND       PRES   REMARKS
WALHALLA       FAIR      27  27 100 NE5       29.76R WCI  21
LANGDON        CLOUDY    27  25  93 W15       29.72F WCI  15
CAVALIER         N/A     27  21  80 N6        29.76R WCI  20
GRAFTON        CLOUDY    28  27  93 CALM      29.77S
CANDO          FAIR      16  16 100 W7        29.78R WCI   6
FORT TOTTEN      N/A     24  17  73 W3        29.95S
ROLLA          FAIR      25  18  74 W10       29.73F WCI  15
RUGBY          FAIR      12  12 100 W9        29.78S WCI   0
 ***** THE ABOVE OBSERVATIONS ARE NON NWS ARE NOT QUALITY
        CONTROLLED AND MAY MIS-REPORT RAIN FOR SNOW...
$$

 *****  OTHER OBSERVATIONS SOUTHEAST NORTH DAKOTA *****

CITY           SKY/WX    TMP DP  RH WIND       PRES   REMARKS
COOPERSTOWN    FAIR      19  16  86 W7        29.79S WCI  10
VALLEY CITY    FAIR      25  21  86 W15       29.81F WCI  12
OAKES            N/A     25  21  86 SW9       29.85F WCI  15
GWINNER          N/A     27  21  80 SW12      29.84F WCI  16
BUFFALO          N/A     25  17  72 E13         N/A  WCI  14
WYNDMERE       NOT AVBL
 ***** THE ABOVE OBSERVATIONS ARE NON NWS ARE NOT QUALITY
       CONTROLLED AND MAY MIS-REPORT RAIN FOR SNOW...
$$

  *****  WEATHER ACROSS NORTHERN MINNESOTA  *****

CITY           SKY/WX    TMP DP  RH WIND       PRES   REMARKS
FLAG ISLAND    CLOUDY    28  25  86 W18       29.63R WCI  16
WARROAD        CLOUDY    30  25  80 W15G21    29.68R WCI  19
ROSEAU         FAIR      28  21  74 W12       29.70R WCI  18
HALLOCK        CLOUDY    28  23  80 NW7       29.75R WCI  21
THF RVR FALLS  CLOUDY    32  26  78 W13       29.74S WCI  22
HALSTAD        NOT AVBL
FOSSTON        MOCLDY    27  21  80 SW9       29.75S WCI  17
BAUDETTE       CLOUDY    32  29  88 W10       29.63S WCI  24
WASKISH        CLOUDY    30  28  93 W12G17    29.68S WCI  21
CROOKSTON      FAIR      25  19  80 NW13      29.77R WCI  13
$$
  *****  WEATHER ACROSS CENTRAL AND WEST MINNESOTA  *****

CITY           SKY/WX    TMP DP  RH WIND       PRES   REMARKS
BEMIDJI        FAIR      32  23  69 W16       29.71F WCI  21
PARK RAPIDS    FAIR      29  20  69 W12       29.75F WCI  19
WADENA         FAIR      27  19  74 W12       29.79S WCI  16
DETROIT LAKES  FAIR      32  23  69 W12       29.80S WCI  23
MOORHEAD       FAIR      28  21  74 W10       29.82S WCI  19
FERGUS FALLS   FAIR      21  18  86 W7        29.84F WCI  13
ELBOW LAKE     FAIR      23  19  85 NW8       29.86S WCI  13
MORRIS MN      FAIR      28  21  74 W14       29.83F WCI  17
STAPLES        FAIR      27  18  69 SW7       29.79S WCI  19
WHEATON        FAIR      34  21  60 NW9       29.87S
$$
  *****  WEATHER ELSEWHERE ACROSS MINNESOTA  *****

CITY           SKY/WX    TMP DP  RH WIND       PRES   REMARKS
DULUTH         FAIR      25  19  78 SW14      29.70F WCI  13
INTRNTL FALLS  LGT SNOW  31  28  89 W9        29.63F FOG     WCI  23
ELY            LGT SNOW  25  21  86 SW5       29.67F WCI  19
CLOQUET        FAIR      23  18  80 SW9       29.72F WCI  13
BRAINERD       FAIR      29  19  66 SW12      29.79F WCI  19
HIBBING        CLOUDY    20  18  92 CALM      29.69F
ALEXANDRIA     FAIR      26  19  74 W12       29.84S WCI  16
SAINT CLOUD    FAIR      21  17  84 CALM      29.85F
MINNEAPOLIS    CLOUDY    24  18  77 SW6       29.91F WCI  17
$$

  *****  WEATHER ACROSS SOUTH DAKOTA  *****

CITY           SKY/WX    TMP DP  RH WIND       PRES   REMARKS
SIOUX FALLS    FAIR      19  16  88 CALM      29.99F
BROOKINGS      FAIR      15  13  91 S5        29.96F WCI   8
WATERTOWN      FAIR      19  16  88 S10       29.91F WCI   7
HURON          FAIR      15  13  91 SE6       29.96F WCI   6
SISSETON         N/A     38  22  52 W24G33    29.83F
ABERDEEN       FAIR      22  19  89 S9        29.90F WCI  12
MITCHELL       FAIR      18  16  92 CALM      29.98F
PIERRE         FAIR      25  21  85 SW7       29.92F WCI  17
MOBRIDGE       FAIR      21  17  84 SE7       29.86F WCI  12
RAPID CITY     FAIR      27  16  63 CALM      29.93F
$$

  *****  SOME WEATHER IN NEARBY STATES *****

CITY           SKY/WX    TMP DP  RH WIND       PRES   REMARKS
GLASGOW MT     FAIR      20  15  81 E7        29.79F WCI  11
GREAT FALLS MT FAIR      43  26  51 S17G23    29.81F
CHEYENNE WY    FAIR      36  13  38 SW7       30.08F
SCOTTSBLUFF NE FAIR      18  14  84 N6        30.04F WCI  10
OMAHA NE       FAIR      14   8  77 SE12      30.16F WCI   0
DES MOINES IA  FAIR      21  10  62 SW12      30.16F WCI   9
DAVENPORT IA   FAIR      18  10  71 SW14      30.20F WCI   4
CHICAGO IL     FAIR      17   9  70 W12G21    30.15S WCI   4
EAU CLAIRE WI  FAIR      23  16  74 SW9       29.92F WCI  13
LA CROSSE WI   FAIR      19  11  70 S12       30.03F WCI   7
$$

  *****  SOME NATIONAL WEATHER *****

CITY           SKY/WX    TMP DP  RH WIND       PRES   REMARKS
LA GUARDIA NY  FAIR      21   9  59 N8        30.04S WCI  11
RALEIGH NC     FAIR      13   8  81 CALM      30.25S
ATLANTA GA     FAIR      15   9  76 NW16      30.39S WCI  -1
NEW ORLEANS LA FAIR      27  18  69 N7        30.56F WCI  19
OKLAHOMA CITY  FAIR      18   6  59 S8        30.41F WCI   8
ALBUQUERQUE NM FAIR      23  13  65 CALM      30.31F
SALT LAKE CITY FAIR      37  27  67 E5        30.23F
LOS ANGELES CA FAIR      59  50  72 CALM      30.08F
BOISE ID       FAIR      46  33  60 SE21G29   30.00F
SEATTLE WA     LGT RAIN  46  43  89 W8        29.80R
$$

*** WEATHER ACROSS MANITOBA...SASKATCHEWAN AND ONTARIO ***
                ***ONTARIO***

CITY           SKY/WX    TMP DP  RH WIND       PRES   REMARKS
GERALDTON      CLEAR      1  -2  85 E2        29.70F
THUNDER BAY    MOCLDY    10   7  85 VRB2      29.71F
SIOUX LOOKOUT  FLURRIES  16  14  93 CALM      29.60S
TORONTO        CLOUDY    16   9  73 SW14G20   30.01S WCI   1
BIG TROUT LK   FLURRIES   7   3  85 E5        29.78R WCI  -2
PICKLE LAKE    CLEAR      3   1  92 SE6       29.65  WCI  -8
DRYDEN         FLURRIES  23  23 100 SW5       29.57S WCI  17
KENORA         FLURRIES  28  28 100 W9        29.59R WCI  20
$$
                *** MANITOBA***

CITY           SKY/WX    TMP DP  RH WIND       PRES   REMARKS
BRANDON        CLOUDY    30  25  80 W12       29.72S WCI  21
DAUPHIN        CLOUDY    18  10  73 E7        29.73S WCI   8
ISLAND LAKE    FLURRIES  10   5  79 NE6       29.73F WCI   1
PILOT MOUND      N/A     30  23  74 W7          N/A  WCI  23
THE PAS        CLEAR     -6 -11  77 VRB2      29.71F
THOMPSON       CLOUDY     7   3  85 VRB2      29.75F
WINNIPEG       CLEAR     14  10  85 W12       29.75R WCI   0
LYNN LAKE      FLURRIES   7   5  92 SE5       29.69F WCI  -2
CHURCHILL      FLURRIES   0  -4  85 W7        29.89R WCI -13
GILLAM         FLURRIES   0  -4  85 E3        29.84S
$$
                ***SASKATCHEWAN***

CITY           SKY/WX    TMP DP  RH WIND       PRES   REMARKS
ESTEVAN        PTCLDY    14  10  85 S7        29.77F WCI   4
KINDERSLEY     CLOUDY    27  21  80 S7        29.58F WCI  19
LLOYDMINSTER   CLOUDY    27  21  80 S8        29.48F WCI  18
PRINCE ALBERT  CLOUDY     5   1  85 E3        29.67F
REGINA         MOCLDY    14  10  85 SE7       29.72F WCI   4
YORKTON        MOCLDY    23  19  86 SW8       29.69F WCI  14
N. BATTLEFORD  CLEAR     19  12  73 SE8       29.59F WC



USA.gov is the U.S. government's official web portal to all federal, state and local government web resources and services.